Regional Weather Roundup
Issued by NWS Wakefield, VA

Home | Current Version | Previous Version | Graphics & Text | Print | Product List | Glossary On
Versions: 1 2 3 4 5 6 7 8 9 10 11 12 13 14 15 16 17 18 19 20 21 22 23 24 25 26 27 28 29 30 31 32 33 34 35 36 37 38 39 40 41 42 43 44 45 46 47 48 49 50
000
ASUS41 KAKQ 242210
RWRAKQ

REGIONAL WEATHER ROUNDUP
NATIONAL WEATHER SERVICE WAKEFIELD VA
600 PM EDT THU JUL 24 2014

Note: "fair" indicates few or no clouds below 12,000 feet with no
significant weather and/or obstructions to visibility. * = Denotes
station may not report precipitation (e.g., rain,snow,etc.),
thunder or fog.

VAZ042-051-052>054-056-242300-
NORTHERN VIRGINIA

CITY           SKY/WX    TMP DP  RH WIND       PRES   REMARKS
WASH NATIONAL  CLOUDY    79  59  50 N7        29.89S
DULLES         CLOUDY    76  58  53 NW9       29.90S
FORT BELVOIR   CLOUDY    77  64  64 VRB3      29.91R
QUANTICO       LGT RAIN  71  66  84 W10       29.91S
FREDERICKSBRG* LGT RAIN  70  70  99 CALM      29.90R
STAFFORD*      RAIN      69  69 100 CALM      29.95S
WARRENTON      CLOUDY    71  71 100 SW3       29.91S
CULPEPER*      CLOUDY   N/A N/A N/A SW3       29.92S
MANASSAS*      NOT AVBL
LEESBURG*      CLOUDY    77  64  65 NW5       29.92R
WINCHESTER     PTSUNNY   77  55  47 N5        29.92F
$$

VAZ048-049-060>072-079>083-242300-
CENTRAL AND SOUTH CENTRAL VIRGINIA...AND NORTH CENTRAL NORTH CAROLINA

CITY           SKY/WX    TMP DP  RH WIND       PRES   REMARKS
RICHMOND       RAIN      72  69  90 N9        29.90R FOG
CHESTERFIELD*  CLOUDY    70  61  73 N9        29.91S
HANOVER        RAIN      69  67  93 N5        29.91F FOG
TAPPAHANNOCK*  TSTM      72  68  86 CALM      29.91R
CHARLOTTSVILLE LGT RAIN  69  66  90 NE6       29.93R
ORANGE*        DRIZZLE   66  64  94 SE5       29.95R
LOUISA*        RAIN      66  64  94 N3        29.92S
FARMVILLE*     RAIN      70  70 100 NE6       29.87F
SOUTH HILL*    MOSUNNY   82  73  74 CALM      29.90F
ROANOKE RAPIDS CLOUDY    84  70  61 NE3       29.84F
RALEIGH        PTSUNNY   84  72  65 SE6       29.82F THUNDER
$$

VAZ088>098-242300-
SOUTHEAST VIRGINIA

CITY           SKY/WX    TMP DP  RH WIND       PRES   REMARKS
NORFOLK        MOSUNNY   80  70  71 NE8       29.85S
VIRGINIA BEACH PTSUNNY   77  72  84 E7        29.84F
NORFOLK NAVAL  PTSUNNY   79  71  76 E9        29.87S
WEST POINT*    CLOUDY    75  70  85 NE6       29.89R
NEWPORT NEWS   PTSUNNY   80  73  79 NE8       29.86S
LANGLEY AFB    PTSUNNY   75  75 100 NE6       29.85S
FORT EUSTIS    MOSUNNY   79  71  77 E10       29.83F
WILLIAMSBURG*  MOSUNNY   79  75  89 E5        29.86S
FRANKLIN*      MOSUNNY   82  70  65 CALM      29.84S
WAKEFIELD      PTSUNNY   81  71  71 VRB5      29.83F
$$

VAZ020-022-025-037-045-242300-
WESTERN AND SOUTHWEST VIRGINIA

CITY           SKY/WX    TMP DP  RH WIND       PRES   REMARKS
STAUNTON*      CLOUDY    70  65  83 NE5       29.96F
HOT SPRINGS VA CLOUDY    63  61  93 N6        30.06S FOG
LYNCHBURG      CLOUDY    68  67  96 N6        29.93R
DANVILLE       TSTM      72  67  84 NE10      29.89R
MARTINSVILLE   PTSUNNY   78  66  66 N10       29.92R
ROANOKE        PTSUNNY   72  66  83 NE6       29.95S
BLACKSBURG     RAIN      72  70  94 CALM        N/A
DUBLIN*        LGT RAIN  72  67  84 NW5       29.99S
MARION*        CLOUDY    72  67  85 W9        30.02F
HILLSVILLE*    PTSUNNY   71  65  81 NW10      29.99S
RICHLANDS*     LGT RAIN  69  67  93 NW10      30.04S VSB 1
WISE*          FOG       63  63 100 N10       30.07S VSB<1/4
ABINGDON*      CLOUDY    72  68  89 CALM      30.00S
$$

MDZ021>025-VAZ099-100-242300-
SOUTHERN MARYLAND AND THE DELMARVA PENINSULA

CITY           SKY/WX    TMP DP  RH WIND       PRES   REMARKS
PATUXENT RIVER LGT RAIN  72  65  78 NW3       29.89R
BAY BRIDGE APT   N/A     77  61  57 CALM      29.88S
LEONARDTOWN    CLOUDY    70  66  88 CALM      29.91S
DOVER          MOSUNNY   78  62  58 NW5       29.85S
GEORGETOWN     MOSUNNY   77  64  64 VRB5      29.87F
EASTON         PTSUNNY   79  66  65 CALM      29.92R
CAMBRIDGE      PTSUNNY   77  64  65 CALM      29.88R
SALISBURY      NOT AVBL
OCEAN CITY     PTSUNNY   77  66  68 N7        29.85F
WALLOPS ISLAND PTSUNNY   78  70  76 N5        29.87S
ACCOMACK*        N/A     75  70  83 CALM      29.86S
$$

NCZ012>017-030>032-242300-
EASTERN NORTH CAROLINA

CITY           SKY/WX    TMP DP  RH WIND       PRES   REMARKS
ELIZABETH CITY MOSUNNY   78  69  73 S5        29.85F
AHOSKIE*       MOSUNNY   80  71  71 S7        29.86R
EDENTON*       MOSUNNY   77  72  83 S3        29.86S
CURRITUCK*     MOSUNNY   81  68  65 E3        29.87R
KILL DEVIL HLS MOSUNNY   78  68  72 CALM      29.85S
MANTEO         NOT AVBL
CAPE HATTERAS  LGT RAIN  74  72  93 SW10      29.87F
GOLDSBORO      PTSUNNY   76  76  99 SE5       29.83F
WASHINGTON     CLOUDY    76  73  91 E6        29.86F
GREENVILLE     PTSUNNY   77  73  88 SE3       29.88S
NEW BERN       CLOUDY    75  73  94 S3        29.86F
WILMINGTON     SUNNY     87  75  67 SW13      29.85R THUNDER HX  96
$$

VAZ048-242300-
ELSEWHERE

CITY           SKY/WX    TMP DP  RH WIND       PRES   REMARKS
HARRISBURG PA  CLOUDY    79  53  40 N12G18    29.90S
BALTIMORE      CLOUDY    78  57  48 N8        29.88S
ANNAPOLIS      PTSUNNY   78  63  59 N6        29.88S
ANDREWS AFB    CLOUDY    75  63  66 N5        29.89S
WILMINGTON DE  SUNNY     80  57  45 NW8       29.86F
PHILADELPHIA   PTSUNNY   81  54  39 N10       29.85F
WILDWOOD NJ*   SUNNY     77  63  61 W8        29.86F
ATLANTIC CITY  MOSUNNY   81  60  48 NW10      29.84S
HENDERSON NC   PTSUNNY   82  69  66 NE5       29.84F
GREENSBORO     PTSUNNY   86  68  54 SW8       29.85F
ROCKY MOUNT    PTSUNNY   81  72  74 E6        29.83F
FAYETTEVILLE   PTSUNNY   86  72  62 SW12      29.83S
CHARLOTTE      PTSUNNY   80  69  69 S7        29.89R THUNDER
$$

VAZ100-242300-
MARINE

STATION/POSITION TIME  TEMP    WIND        PRES    WAVE   SWELL
                       AIR SEA DIR/SP/G            HT/PER HT/PER
                 (UTC) (F)     (DEG/KT/KT) (MB)    (FT/S) (FT/S)
44066 TX TWR #4  2200   73 74  350/  8/ 10 1009.6R   3/ 7   2/ 7
CAPE MAY NJ      2200   79 79  310/  6/  9 1010.4F
LEWES DE         2200   75 73  340/  7/  7 1010.8F
15NM E FENWICK I 2200   75 76              1010.7F   2/ 8
OCEAN-CITY-INLET 2200   76 70  350/  8/  9 1010.6F
WACHAPREAGUE VA  2200   75 82  320/  2/  5 1011.1R
THOMAS POINT MD  2200   76 80   10/  2/  3 1012.2F
GOOSES REEF MD   2200   76      20/  8/ 10 1012.5R
COVE POINT MD    2200   76      30/  4/  8 1012.0R
SOLOMONS ISLAND  2200      82                N/A
BISHOPS HEAD MD  2200   76 80  350/  5/  9 1011.4R
PINEY POINT MD   2200           20/  5/  5   N/A
POTOMAC MD       2200   76      10/ 12/ 16 1011.1R
CAMBRIDGE MD     2200   77 80  340/  5/  7 1011.4R
LEWISETTA VA     2200   74 81  360/  9/ 15 1012.1R
RAPPAHANNOCK LGT 2200          360/ 11/ 12 1011.6F
STINGRAY PT      2200   77      30/ 10/ 14 1012.0F
YORK RVR RNG VA  2200   78      50/ 15/ 16 1010.1F
YORKTOWN VA      2200   78 81   50/ 10/ 11 1010.5F
JAMESTOWN VA     2200   76      90/  8/ 12   N/A
DOMINION TERM VA 2200   78      50/ 10/ 14 1010.8R
KIPTOPEKE VA     2200      81  120/  5/  8   N/A
CHES BAY BRIDGE  2200   76 79   70/  7/  9 1010.3S
CAPE HENRY VA    2200   77     100/  6/  7 1009.7F
WILLOUBY STN VA  2200           80/  7/  8 1010.3R
S CRANEY ISL VA  2200           10/  9/ 12 1010.7R
CAPE HENRY BUOY  2200      78                N/A     2/ 6
1ST LANDING BUOY 2200   77     100/  6/  6 1010.5F
CAPE CHARLES BUO 2200      77                N/A     2/ 7
OFFSHORE WE BUOY 2200      79                N/A     2/ 6
64NM E OF VA BCH 2200   77 79  270/  2/  4 1010.6S   3/ 4   3/ 4
DUCK PIER NC     2200   79 73  140/  3/  3 1010.3R
44056 DUCK FRF   2100                        N/A     2/ 8
OREGON INLET NC  2200   76 82  180/  2/  3 1011.1S
HATTERAS NC      2200   74 82  220/  8/ 12 1011.7F
DIAMOND SHLS NC  2200          VRB 17/ 19  1011.0F   4/ 7   2/ 7
CAPE LOOKOUT NC  2100   71      10/ 12/ 15 1013.3R
$$



USA.gov is the U.S. government's official web portal to all federal, state and local government web resources and services.